Location: Boullarre
(49.1305°N, 3.0047°E)
Time: 19:45:13
(UTC+00:00)

Cosmos 2360 Rocket - Pass Details

Date: 03 February 2023
Orbit: 832 x 846 km, 71.0° (Epoch: 25 March)

Event Time Altitude Azimuth Distance (km) Brightness Sun altitude
Rises 19:47:00 0° 234° (SW) 3,381 5.9 -29.5°
Reaches altitude 10° 19:49:36 10° 242° (WSW) 2,452 5.2 -29.9°
Maximum altitude 19:54:49 38° 310° (NW) 1,277 3.5 -30.7°
Enters shadow 19:57:26 25° 358° (N) 1,658 3.8 -31.1°
